Snowfall_Accumulation
0.0 0.0 0.0 0.0 0.0 0.0 0.0 0.0 0.0 0.0 0.0 0.0 0.0 0.0 0.0 0.0 0.0 0.0 0.0 0.0 0.0 0.0 0.0 0.0 0.0 0.0 0.0
0.0 0.0 0.0 0.0 0.0 0.0 0.0 0.1 0.0 0.0 0.0 0.0 0.0 0.0 0.0 0.0 0.0 0.0 0.0 0.0 0.0 0.0 0.0 0.0 0.0 0.0 0.0
0.1 0.0 0.0 0.0 0.0 0.0 0.0 0.0 0.0 0.0 0.0 0.0 0.0 0.0 0.0 0.0 0.0 0.0 0.0 0.0 0.0 0.0 0.0 0.0 0.0 0.0 0.0
0.3 0.4 0.2 0.0 0.2 0.0 0.0 0.0 0.0 0.0 0.0 0.0 0.0 0.0 0.0 0.0 0.0 0.0 0.0 0.0 0.0 0.0 0.0 0.0 0.0 0.0 0.0
1.5 1.9 0.0 0.0 0.0 0.0 0.0 0.0 0.2 0.0 0.0 0.0 0.0 0.0 0.0 0.0 0.0 0.0 0.0 0.0 0.0 0.0 0.0 0.0 0.0 0.0 0.0
2.6 0.3 0.0 0.0 0.0 0.1 1.7 1.8 1.4 0.0 0.0 0.1 0.0 0.0 0.0 0.0 0.0 0.0 0.0 0.0 0.0 0.0 0.0 0.0 0.0 0.0 0.0
0.2 0.2 0.3 0.1 2.7 3.2 1.1 1.1 0.7 0.0 0.2 0.4 0.0 0.0 0.0 0.0 0.0 0.0 0.0 0.0 0.0 0.0 0.0 0.0 0.0 0.0 0.0
0.0 0.2 0.6 0.1 0.1 0.1 0.6 1.0 0.4 0.0 0.0 2.2 0.0 0.1 0.0 0.0 0.0 0.0 0.0 0.0 0.0 0.0 0.0 0.0 0.0 0.0 0.0
0.2 0.1 0.0 0.0 0.0 1.5 3.2 3.2 2.2 0.1 0.0 1.2 0.4 0.2 0.0 0.0 0.0 0.0 0.0 0.0 0.0 0.0 0.0 0.0 0.0 0.0 0.0
0.0 0.0 0.0 0.0 0.0 0.2 3.7 9.8 4.5 2.8 0.0 3.4 1.1 0.9 3.9 0.0 0.0 0.0 0.0 0.0 0.0 0.0 0.0 0.0 0.0 0.2 0.4
0.0 0.0 0.0 0.0 0.1 0.1 1.6 7.8 11.4 6.9 0.0 5.0 6.4 2.2 5.1 3.2 2.5 2.5 1.7 1.1 1.4 2.0 1.9 1.2 0.8 0.8 1.5
0.1 0.2 0.2 0.3 0.2 0.3 0.4 1.6 3.4 7.5 2.9 3.9 10.2 4.8 7.2 6.0 5.0 5.7 4.4 4.8 7.5 8.0 9.3 2.5 1.0 0.6 0.4
1.1 0.5 0.2 0.1 0.4 0.6 0.8 1.3 2.0 2.9 3.8 4.1 7.6 7.6 7.7 7.3 5.4 5.0 7.2 6.2 6.1 7.7 6.2 6.2 4.5 2.6 1.2
2.4 0.7 0.1 0.4 0.8 1.4 4.3 3.3 4.9 3.3 3.6 4.8 6.8 7.5 6.5 4.7 5.8 6.0 5.9 10.2 7.8 7.0 5.5 6.4 1.5 1.1 0.2
2.1 1.9 0.8 0.6 1.3 2.0 5.3 6.9 8.0 6.9 6.3 5.0 3.8 3.4 4.1 4.9 4.9 4.9 6.1 6.7 8.6 7.9 5.2 6.8 5.4 1.0 0.3
2.1 2.1 3.4 3.4 3.7 3.5 5.8 7.5 8.0 6.9 7.6 6.3 4.6 3.0 3.4 3.5 4.1 8.0 6.9 8.3 8.7 6.6 4.5 4.7 6.8 3.7 0.1
3.9 4.6 4.8 3.5 4.0 5.5 6.5 6.9 7.1 6.4 5.3 3.7 3.9 4.4 4.5 3.8 3.4 3.5 7.9 7.4 6.1 4.7 3.1 3.2 5.2 5.1 0.0